Weather reports worldwide

Advertisment
Chania/Souda, Greece (16746): temperature & dewpoint: 11.07.2019 08:00:00 - 17.07.2019 08:00:00 (EEST)Chania/Souda, Greece (16746): wind speed: 11.07.2019 08:00:00 - 17.07.2019 08:00:00 (EEST)Chania/Souda, Greece (16746): wind direction: 11.07.2019 08:00:00 - 17.07.2019 08:00:00 (EEST)Chania/Souda, Greece (16746): reduced air pressure: 11.07.2019 08:00:00 - 17.07.2019 08:00:00 (EEST)Chania/Souda, Greece (16746): visibility: 11.07.2019 08:00:00 - 17.07.2019 08:00:00 (EEST)
Date & Time tt [°C] td [°C] ff [km/h] ff [kn] dd ppp [hPa] vv [km]
17.07.2019 08:00:00 20,0 19,0 8 4 S - 9
17.07.2019 07:00:00 19,0 18,0 15 8 SSE - 10
17.07.2019 06:00:00 19,0 18,7 0 0 N 1002,9 9
17.07.2019 05:00:00 20,0 18,0 9 5 S - 8
17.07.2019 04:00:00 23,0 20,0 0 0 N - 9
17.07.2019 03:00:00 23,2 20,4 0 0 N 1003,0 10
17.07.2019 02:00:00 23,0 20,0 0 0 N - 10
17.07.2019 01:00:00 23,0 20,0 0 0 N - 10
17.07.2019 00:00:00 24,0 19,3 0 0 N 1004,2 10
16.07.2019 23:00:00 24,0 20,0 0 0 N - 10
16.07.2019 22:00:00 24,0 19,0 0 0 N - 10
16.07.2019 21:00:00 24,2 19,2 11 6 ENE 1003,4 10
16.07.2019 20:00:00 25,0 19,0 15 8 NE - 10
16.07.2019 19:00:00 26,0 19,0 11 6 NE - 10
16.07.2019 18:00:00 26,8 17,7 22 12 E 1003,0 10
16.07.2019 17:00:00 27,0 19,0 22 12 E - 10
16.07.2019 16:00:00 27,0 19,0 22 12 ESE - 10
16.07.2019 15:00:00 27,2 19,2 26 14 ESE 1003,4 10
16.07.2019 14:00:00 27,0 20,0 22 12 E - 10
16.07.2019 13:00:00 27,0 20,0 22 12 E - 10
16.07.2019 12:00:00 27,0 20,3 26 14 E 1004,3 10
16.07.2019 11:00:00 27,0 20,0 15 8 E - 10
16.07.2019 10:00:00 26,0 20,0 18 10 E - 10
16.07.2019 09:00:00 25,4 19,2 31 17 E 1004,2 10
16.07.2019 08:00:00 24,0 19,0 28 15 E - 10
16.07.2019 07:00:00 23,0 20,0 15 8 E - 10
16.07.2019 06:00:00 23,4 20,7 15 8 E 1005,3 10
16.07.2019 05:00:00 23,0 20,0 15 8 E - 10
16.07.2019 04:00:00 23,0 20,0 11 6 E - 10
16.07.2019 03:00:00 23,2 21,4 8 4 E 1005,9 10
16.07.2019 02:00:00 23,0 21,0 0 0 N - 10
16.07.2019 01:00:00 23,0 21,0 15 8 SE - 10
16.07.2019 00:00:00 23,0 20,2 8 4 ESE 1007,0 10
15.07.2019 23:00:00 23,0 20,0 13 7 SE - 10
15.07.2019 22:00:00 24,0 20,0 16 9 SE - 10
15.07.2019 21:00:00 23,8 19,5 15 8 ESE 1007,4 10
15.07.2019 20:00:00 24,0 19,0 22 12 ESE - 10
15.07.2019 19:00:00 25,0 20,0 16 9 ESE - 10
15.07.2019 18:00:00 26,6 19,9 18 10 E 1008,5 10
15.07.2019 17:00:00 28,0 20,0 9 5 ENE - 10
15.07.2019 16:00:00 28,0 18,0 18 10 NNE - 10
15.07.2019 15:00:00 26,6 19,9 21 11 E 1007,4 10
15.07.2019 14:00:00 27,0 20,0 18 10 E - 10
15.07.2019 13:00:00 27,0 21,0 21 11 E - 10
15.07.2019 12:00:00 27,8 19,6 15 8 N 1009,6 10
15.07.2019 11:00:00 27,0 21,0 8 4 E - 10
15.07.2019 10:00:00 26,0 20,0 11 6 ENE - 10
15.07.2019 09:00:00 24,4 21,1 11 6 NNE 1007,1 10
15.07.2019 08:00:00 24,0 21,0 16 9 NE - 10
15.07.2019 07:00:00 23,0 22,0 11 6 N - 10
15.07.2019 06:00:00 23,8 22,3 13 7 NNW 1006,0 10
15.07.2019 05:00:00 24,0 21,0 21 11 W - 10
15.07.2019 04:00:00 24,0 19,0 22 12 W - 10
15.07.2019 03:00:00 24,0 19,3 26 14 W 1005,4 10
15.07.2019 02:00:00 24,0 19,0 21 11 W - 10
15.07.2019 01:00:00 25,0 19,0 28 15 WSW - 10
15.07.2019 00:00:00 25,0 18,8 29 16 W 1005,4 10
14.07.2019 23:00:00 25,0 18,0 26 14 W - 10
14.07.2019 22:00:00 25,0 19,0 37 20 W - 10
14.07.2019 21:00:00 26,0 19,9 34 18 W 1004,7 10
14.07.2019 20:00:00 27,0 20,0 41 22 W - 10
14.07.2019 19:00:00 28,0 20,0 37 20 W - 10
14.07.2019 18:00:00 29,4 20,7 37 20 W 1004,0 10
14.07.2019 17:00:00 30,0 21,0 37 20 W - 10
14.07.2019 16:00:00 30,0 20,0 37 20 W - 10
14.07.2019 15:00:00 30,2 20,0 37 20 W 1004,7 10
14.07.2019 14:00:00 30,0 21,0 35 19 W - 10
14.07.2019 13:00:00 30,0 20,0 35 19 WNW - 10
14.07.2019 12:00:00 29,4 19,3 37 20 W 1005,3 10
14.07.2019 11:00:00 28,0 20,0 34 18 W - 10
14.07.2019 10:00:00 28,0 20,0 34 18 W - 10
14.07.2019 09:00:00 27,4 19,1 26 14 W 1005,5 10
14.07.2019 08:00:00 25,0 19,0 18 10 WSW - 10
14.07.2019 07:00:00 24,0 19,0 15 8 W - 10
14.07.2019 06:00:00 23,8 19,1 15 8 W 1005,4 10
14.07.2019 05:00:00 24,0 20,0 15 8 W - 10
14.07.2019 04:00:00 25,0 20,0 26 14 W - 10
14.07.2019 03:00:00 24,6 20,0 11 6 W 1007,0 10
14.07.2019 02:00:00 24,0 20,0 11 6 NW - 10
14.07.2019 01:00:00 24,0 20,0 11 6 WNW - 10
14.07.2019 00:00:00 24,2 19,6 11 6 WNW 1008,9 10
13.07.2019 23:00:00 24,0 19,0 8 4 W - 10
13.07.2019 22:00:00 25,0 19,0 8 4 W - 10
13.07.2019 21:00:00 25,0 17,7 9 5 WNW 1008,9 10
13.07.2019 20:00:00 26,0 21,0 18 10 WNW - 10
13.07.2019 19:00:00 27,0 20,0 15 8 WNW - 10
13.07.2019 18:00:00 27,0 20,0 21 11 WNW 1009,8 10
13.07.2019 17:00:00 28,0 19,0 18 10 WNW - 10
13.07.2019 16:00:00 29,0 20,0 16 9 NW - 10
13.07.2019 15:00:00 28,6 19,4 18 10 NW 1010,0 10
13.07.2019 14:00:00 29,0 19,0 18 10 NW - 10
13.07.2019 13:00:00 28,0 20,0 18 10 WNW - 10
13.07.2019 12:00:00 27,4 19,8 22 12 WNW 1009,9 10
13.07.2019 11:00:00 27,0 20,0 22 12 W - 10
13.07.2019 10:00:00 26,0 18,0 18 10 WNW - 10
13.07.2019 09:00:00 25,2 17,2 18 10 W 1010,2 10
13.07.2019 08:00:00 23,0 19,0 15 8 WNW - 10
13.07.2019 07:00:00 22,0 18,0 11 6 W - 10
13.07.2019 06:00:00 21,0 17,8 11 6 W 1010,2 10
13.07.2019 05:00:00 21,0 18,0 0 0 N - 10
13.07.2019 04:00:00 22,0 19,0 11 6 W - 10
13.07.2019 03:00:00 21,8 18,3 8 4 WSW 1010,7 10
13.07.2019 02:00:00 21,0 17,0 0 0 N - 10
13.07.2019 01:00:00 22,0 18,0 0 0 N - 10
13.07.2019 00:00:00 21,8 17,6 0 0 N 1011,8 10
12.07.2019 23:00:00 22,0 17,0 0 0 N - 10
12.07.2019 22:00:00 23,0 17,0 8 4 S - 10
12.07.2019 21:00:00 23,4 17,3 11 6 SE 1011,0 10
12.07.2019 20:00:00 25,0 16,0 15 8 ESE - 10
12.07.2019 19:00:00 26,0 13,0 15 8 ESE - 10
12.07.2019 18:00:00 27,4 11,9 11 6 NE 1010,9 10
12.07.2019 17:00:00 28,0 12,0 15 8 NE - 10
12.07.2019 16:00:00 28,0 14,0 15 8 NNE - 10
12.07.2019 15:00:00 27,6 13,5 15 8 NE 1011,3 10
12.07.2019 14:00:00 28,0 12,0 13 7 N - 10
12.07.2019 13:00:00 28,0 13,0 11 6 NNE - 10
12.07.2019 12:00:00 27,0 14,0 13 7 NW 1011,5 10
12.07.2019 11:00:00 27,0 16,0 9 5 N - 10
12.07.2019 10:00:00 26,0 18,0 0 0 N - 10
12.07.2019 09:00:00 24,6 18,7 9 5 WNW 1011,0 10
12.07.2019 08:00:00 24,0 18,0 0 0 N - 10
12.07.2019 07:00:00 21,0 19,0 0 0 N - 10
12.07.2019 06:00:00 21,4 18,9 0 0 N 1009,8 10
12.07.2019 05:00:00 21,0 19,0 0 0 N - 10
12.07.2019 04:00:00 22,0 20,0 0 0 N - 10
12.07.2019 03:00:00 22,2 19,7 0 0 N 1009,5 10
12.07.2019 02:00:00 23,0 20,0 0 0 N - 10
12.07.2019 01:00:00 23,0 18,0 15 8 ENE - 10
12.07.2019 00:00:00 23,0 18,3 13 7 E 1009,6 10
11.07.2019 23:00:00 24,0 19,0 11 6 ENE - 10
11.07.2019 22:00:00 24,0 20,0 9 5 E - 10
11.07.2019 21:00:00 24,4 20,4 11 6 NE 1009,0 10
11.07.2019 20:00:00 25,0 20,0 11 6 E - 10
11.07.2019 19:00:00 26,0 19,0 18 10 E - 10
11.07.2019 18:00:00 27,6 20,0 18 10 NE 1006,9 10
11.07.2019 17:00:00 28,0 21,0 22 12 NNE - 10
11.07.2019 16:00:00 29,0 22,0 22 12 WNW - 10
11.07.2019 15:00:00 30,0 20,1 35 19 WNW 1006,0 10
11.07.2019 14:00:00 30,0 22,0 35 19 WNW - 10
11.07.2019 13:00:00 31,0 22,0 42 23 WNW - 10
11.07.2019 12:00:00 30,4 23,2 42 23 W 1005,0 10
11.07.2019 11:00:00 31,0 21,0 41 22 WNW - 10
11.07.2019 10:00:00 30,0 19,0 31 17 WNW - 10
11.07.2019 09:00:00 30,8 16,6 39 21 WNW 1003,5 10
11.07.2019 08:00:00 31,0 14,0 24 13 WNW - 10

tt = temperature
td = dewpoint
ff = wind speed
dd = wind direction
ppp = reduced air pressure
vv = visibility

Next stations